[[{"header":{"parameterUnit":"m.s-1","parameterCategory":1,"la1":30.2991,"la2":30.254,"lo1":-89.0895,"lo2":-89.0444,"dy":0.0017,"dx":0.0017,"nx":28,"ny":28,"refTime":"2023-04-16T21:00:00:Z","depth":0,"parameterNumber":2,"parameterNumberName":"U-component_of_WINDS"},"data":[0,0,0,0,0,0,0,0,0,0,0,0,0,0,0,0,0,0,0,0,0,0,0,0,0,0,0,0,0,0,0,0,0,0,0,0,0,0,0,0,0,0,0,0,0,0,0,0,0,0,0,0,0,0,0,0,0,0,-3.2706,-3.2706,0,-3.2689,-3.2689,-3.2689,-3.2617,-3.2616,-3.2614,-3.2612,-3.2596,-3.2597,-3.2598,0,0,0,0,0,0,0,0,0,0,0,0,0,-3.2679,-3.268,-3.2706,-3.2706,-3.2706,-3.2689,-3.2689,-3.2689,-3.2617,-3.2615,-3.2613,-3.2612,-3.2596,-3.2597,-3.2598,0,0,0,0,0,0,0,0,0,0,0,0,0,-3.2679,-3.268,-3.2706,-3.2668,-3.2665,-3.2689,-3.2689,-3.2689,-3.2618,-3.2615,-3.2613,-3.2611,-3.2595,-3.2597,-3.2598,-3.2659,0,0,-3.2603,-3.2604,0,0,0,0,0,0,0,0,-3.2679,-3.268,-3.2674,-3.2671,-3.2667,-3.2653,-3.2673,-3.2679,-3.2619,-3.2636,-3.2612,-3.2609,-3.2617,-3.2617,-3.2619,-3.2658,-3.2657,-3.2604,-3.2605,-3.2605,-3.2606,0,0,0,0,0,0,0,-3.2679,-3.2681,-3.2699,-3.2674,-3.267,-3.2653,-3.265,-3.2674,-3.2641,-3.2634,-3.2629,-3.2628,-3.2614,-3.2618,-3.2618,-3.2657,-3.2604,-3.2605,-3.2606,-3.2607,-3.2746,-3.2749,0,0,0,0,0,0,-3.2685,-3.2681,-3.27,-3.2699,-3.2667,-3.2655,-3.2652,-3.266,-3.264,-3.2635,-3.263,-3.2624,-3.2616,-3.2616,-3.2617,-3.2687,-3.2605,-3.2607,-3.2608,-3.2743,-3.2747,-3.275,0,0,0,0,0,0,-3.2684,-3.2687,-3.2701,-3.2689,-3.2689,-3.2658,-3.2668,-3.2661,-3.2664,-3.2637,-3.2631,-3.2639,-3.2614,-3.2615,-3.2649,-3.2685,-3.2608,-3.2609,-3.274,-3.2744,-3.2748,-3.2827,0,0,0,0,0,0,-3.2684,-3.2687,-3.2709,-3.269,-3.269,-3.2732,-3.267,-3.2662,-3.2667,-3.2659,-3.2644,-3.2639,-3.2612,-3.2647,-3.2651,-3.2686,-3.261,-3.2737,-3.2742,-3.2747,-3.2821,-3.2833,-3.2843,0,0,0,0,0,-3.2683,-3.2732,-3.2711,-3.2713,-3.2717,-3.2734,-3.2735,-3.2703,-3.267,-3.2692,-3.2675,-3.2639,-3.2681,-3.2651,-3.2655,-3.2691,-3.2734,-3.2741,-3.2746,-3.2815,-3.283,-3.2843,0,0,0,0,0,0,-3.2756,-3.2728,-3.2705,-3.2748,-3.2744,-3.2722,-3.2749,-3.2719,-3.2725,-3.2718,-3.2678,-3.2675,-3.2716,-3.2707,-3.2674,-3.2749,-3.2702,-3.2709,-3.2753,-3.2767,-3.2778,-3.2779,-3.2612,0,0,0,0,0,-3.2777,-3.2794,-3.2769,-3.281,-3.2809,-3.278,-3.2786,-3.2762,-3.2757,-3.2755,-3.274,-3.2736,-3.2749,-3.2758,-3.2767,-3.282,-3.2816,-3.2847,-3.2858,-3.2868,-3.2874,-3.2902,-3.2915,-3.2769,-3.2769,-3.2769,0,0,-3.2821,-3.2808,-3.2821,-3.2824,-3.2818,-3.2837,-3.2779,-3.28,-3.2814,-3.2758,-3.2789,-3.2779,-3.2772,-3.2816,-3.2835,-3.281,-3.2914,-3.2875,-3.2883,-3.2884,-3.2909,-3.2923,-3.2935,-3.2774,-3.2773,-3.2772,0,0,-3.291,-3.2902,-3.2935,-3.2931,-3.2923,-3.2903,-3.2912,-3.2895,-3.2886,-3.2917,-3.2876,-3.2892,-3.2914,-3.2911,-3.2913,-3.3004,-3.2971,-3.3008,-3.3067,-3.3094,-3.3106,-3.3116,-3.3148,-3.3161,-3.3015,-3.3015,-3.3015,0,-3.2965,-3.299,-3.2956,-3.2981,-3.2984,-3.2935,-3.297,-3.2967,-3.2963,-3.2967,-3.294,-3.2967,-3.2959,-3.3002,-3.3025,-3.3028,-3.3036,-3.3009,-3.3107,-3.3117,-3.3125,-3.3156,-3.3168,-3.3019,-3.3019,-3.3018,-3.3018,0,-3.3059,-3.3078,-3.3106,-3.3104,-3.311,-3.314,-3.3111,-3.3122,-3.3099,-3.3082,-3.3116,-3.3105,-3.3112,-3.3121,-3.3098,-3.3161,-3.3146,-3.3114,-3.3065,-3.3144,-3.3173,-3.3184,-3.3026,-3.3024,-3.3023,-3.3022,0,0,-3.319,-3.3171,-3.3182,-3.318,-3.3169,-3.3183,-3.3212,-3.3219,-3.3229,-3.3229,-3.3252,-3.3273,-3.3244,-3.3245,-3.3222,-3.3247,-3.332,-3.3211,-3.321,-3.3231,-3.339,-3.3413,-3.3427,-3.3299,-3.3301,-3.3303,-3.339,0,-3.3275,-3.3321,-3.3292,-3.3343,-3.3361,-3.3316,-3.3341,-3.3337,-3.3324,-3.3337,-3.3322,-3.3338,-3.3298,-3.3299,-3.3321,-3.3306,-3.3351,-3.33,-3.332,-3.3321,-3.3322,-3.3442,-3.3467,-3.3549,-3.3401,-3.3403,-3.3404,0,-3.3379,-3.3384,-3.3436,-3.3423,-3.343,-3.3452,-3.3457,-3.3471,-3.3467,-3.3455,-3.3459,-3.343,-3.3458,-3.3411,-3.3449,-3.3415,-3.3422,-3.3416,-3.3419,-3.3418,-3.3366,-3.3444,-3.3575,-3.3587,-3.3421,-3.342,-3.3418,0,-3.3469,-3.3489,-3.3523,-3.3524,-3.351,-3.3527,-3.3522,-3.3515,-3.3522,-3.3527,-3.3531,-3.354,-3.3544,-3.3552,-3.3527,-3.3495,-3.3569,-3.352,-3.356,-3.3561,-3.3576,-3.3575,-3.3709,-3.3583,-3.3583,-3.3582,-3.3582,0,-3.3566,-3.36,-3.3564,-3.3585,-3.3622,-3.359,-3.3628,-3.3618,-3.3614,-3.3633,-3.3595,-3.3614,-3.358,-3.3595,-3.3576,-3.3611,-3.3613,-3.3605,-3.3599,-3.3608,-3.3609,-3.3611,-3.3604,-3.3586,-3.3585,-3.3584,-3.3584,0,-3.3672,-3.3649,-3.3684,-3.3668,-3.3665,-3.3694,-3.3681,-3.37,-3.3685,-3.371,-3.3714,-3.369,-3.3707,-3.3683,-3.3697,-3.3684,-3.3732,-3.3718,-3.3733,-3.3729,-3.3771,-3.3767,-3.3909,-3.3927,-3.379,-3.3792,-3.3793,0,-3.3734,-3.3759,-3.3747,-3.3757,-3.3755,-3.3771,-3.3779,-3.3749,-3.3758,-3.3757,-3.3777,-3.379,-3.3799,-3.3829,-3.3813,-3.3824,-3.381,-3.3859,-3.3811,-3.3819,-3.381,-3.3808,-3.3811,-3.3868,-3.387,-3.3871,-3.3873,0,-3.3847,-3.3835,-3.3847,-3.3856,-3.3865,-3.387,-3.3873,-3.3884,-3.3853,-3.3865,-3.3882,-3.3889,-3.3905,-3.3919,-3.3926,-3.3922,-3.3893,-3.3888,-3.3898,-3.3906,-3.3914,-3.391,-3.3759,-3.3885,-3.3883,-3.3883,-3.3882,-3.3881,-3.3933,-3.3953,-3.3949,-3.3963,-3.3963,-3.3966,-3.3984,-3.3972,-3.3986,-3.3995,-3.3978,-3.4,-3.3997,-3.4004,-3.4003,-3.402,-3.3998,-3.4013,-3.4016,-3.402,-3.4026,-3.3913,-3.4021,-3.4021,-3.4021,-3.402,-3.402,0,-3.4043,-3.4039,-3.4053,-3.4058,-3.407,-3.4042,-3.4044,-3.4056,-3.4076,-3.4076,-3.4086,-3.4107,-3.4121,-3.4108,-3.412,-3.4136,-3.4123,-3.414,-3.4138,-3.4138,-3.4045,-3.4035,-3.4151,-3.4151,-3.415,-3.415,-3.415,-3.415,-3.4102,-3.4136,-3.4124,-3.4158,-3.4153,-3.4174,-3.4178,-3.4182,-3.4182,-3.4206,-3.4218,-3.4209,-3.4205,-3.4216,-3.4229,-3.4224,-3.423,-3.4252,-3.4243,-3.4157,-3.4144,-3.4132,-3.4122,-3.4254,-3.4254,-3.4334,-3.4335,-3.4336]},{"header":{"parameterUnit":"m.s-1","parameterCategory":1,"la1":30.2991,"la2":30.254,"lo1":-89.0895,"lo2":-89.0444,"dy":0.0017,"dx":0.0017,"nx":28,"ny":28,"refTime":"2023-04-16T21:00:00:Z","depth":0,"parameterNumber":3,"parameterNumberName":"V-component_of_WINDS"},"data":[0,0,0,0,0,0,0,0,0,0,0,0,0,0,0,0,0,0,0,0,0,0,0,0,0,0,0,0,0,0,0,0,0,0,0,0,0,0,0,0,0,0,0,0,0,0,0,0,0,0,0,0,0,0,0,0,0,0,2.2385,2.2384,0,2.2287,2.2286,2.2285,2.2233,2.2232,2.2232,2.2232,2.213,2.2127,2.2125,0,0,0,0,0,0,0,0,0,0,0,0,0,2.2523,2.2521,2.2385,2.2383,2.2382,2.2287,2.2286,2.2285,2.2233,2.2232,2.2232,2.2232,2.2131,2.2127,2.2124,0,0,0,0,0,0,0,0,0,0,0,0,0,2.2448,2.252,2.2385,2.2345,2.234,2.2288,2.2286,2.2284,2.2233,2.2232,2.2232,2.2232,2.2132,2.2128,2.2124,2.2103,0,0,2.2112,2.211,0,0,0,0,0,0,0,0,2.2452,2.2443,2.2352,2.2348,2.2342,2.2272,2.2297,2.2223,2.2233,2.2273,2.2232,2.2232,2.2177,2.2169,2.2151,2.2098,2.2094,2.2111,2.2109,2.2107,2.2106,0,0,0,0,0,0,0,2.2458,2.2447,2.2346,2.2351,2.2345,2.2331,2.232,2.2283,2.2227,2.227,2.2266,2.2255,2.2174,2.2155,2.2148,2.2092,2.2112,2.2108,2.2106,2.2104,2.2017,2.2017,0,0,0,0,0,0,2.247,2.2452,2.2349,2.2343,2.2398,2.2329,2.2317,2.2295,2.2227,2.2217,2.2255,2.2253,2.2162,2.2153,2.2145,2.2116,2.2107,2.2104,2.2101,2.2017,2.2017,2.2017,0,0,0,0,0,0,2.2473,2.2461,2.2353,2.2396,2.2381,2.2327,2.2302,2.2293,2.2274,2.2217,2.2206,2.2246,2.2162,2.215,2.2114,2.2112,2.2102,2.2098,2.2017,2.2017,2.2017,2.2059,0,0,0,0,0,0,2.2477,2.2462,2.2454,2.2397,2.2379,2.2325,2.2302,2.2291,2.2267,2.2263,2.2205,2.2195,2.2161,2.212,2.211,2.2106,2.2095,2.2017,2.2017,2.2017,2.2057,2.206,2.2062,0,0,0,0,0,2.2482,2.2469,2.2454,2.2442,2.2368,2.2325,2.2315,2.2276,2.2267,2.2259,2.2222,2.2197,2.2114,2.2117,2.2105,2.21,2.2017,2.2017,2.2017,2.2056,2.2059,2.2062,0,0,0,0,0,0,2.2526,2.246,2.2443,2.2411,2.2374,2.2316,2.2303,2.228,2.2244,2.2242,2.2194,2.2181,2.215,2.2121,2.2126,2.2076,2.2063,2.2061,2.2096,2.2099,2.2102,2.2109,2.2092,0,0,0,0,0,2.2533,2.2504,2.2447,2.2424,2.2407,2.2359,2.2338,2.2311,2.2271,2.2254,2.2215,2.2176,2.214,2.2118,2.2083,2.2053,2.204,2.2044,2.2046,2.2049,2.2047,2.203,2.2031,2.2018,2.2018,2.2018,0,0,2.2545,2.2505,2.2489,2.2432,2.24,2.2371,2.2345,2.2315,2.2293,2.2249,2.2213,2.2183,2.2136,2.2103,2.2087,2.2078,2.2048,2.2049,2.2051,2.2048,2.203,2.2032,2.2033,2.2018,2.2018,2.2018,0,0,2.2552,2.2519,2.2497,2.2466,2.2418,2.2387,2.2381,2.2327,2.2306,2.2269,2.2236,2.2208,2.2149,2.2117,2.2093,2.209,2.2066,2.2079,2.2093,2.2077,2.2078,2.2079,2.2078,2.2078,2.2078,2.2078,2.2078,0,2.2572,2.2527,2.2488,2.246,2.2436,2.2397,2.2373,2.2345,2.2288,2.2272,2.2264,2.2189,2.2154,2.2114,2.2114,2.2095,2.2088,2.2085,2.2081,2.2082,2.2082,2.208,2.208,2.208,2.208,2.208,2.208,0,2.2555,2.2525,2.2512,2.246,2.2435,2.2409,2.2365,2.2344,2.232,2.2289,2.2252,2.221,2.2166,2.2154,2.2129,2.211,2.2107,2.2091,2.2076,2.2086,2.2084,2.2083,2.2083,2.2082,2.2082,2.2081,0,0,2.2586,2.2514,2.251,2.2486,2.2432,2.2407,2.238,2.2338,2.2321,2.2283,2.2259,2.221,2.2196,2.2168,2.214,2.2126,2.2127,2.2111,2.211,2.2116,2.2104,2.2116,2.2116,2.2111,2.2111,2.2111,2.2108,0,2.2586,2.2536,2.25,2.2465,2.2436,2.2399,2.2376,2.234,2.2311,2.2282,2.2249,2.2215,2.2198,2.2182,2.2166,2.213,2.2124,2.213,2.2088,2.2087,2.2101,2.2115,2.2128,2.2127,2.2107,2.2107,2.2106,0,2.2578,2.2543,2.2505,2.2455,2.2442,2.2421,2.2381,2.2353,2.2312,2.2292,2.2262,2.2234,2.2203,2.2192,2.215,2.2155,2.2135,2.2115,2.2114,2.2109,2.2097,2.211,2.2126,2.2126,2.2105,2.2105,2.2105,0,2.2605,2.2549,2.2519,2.2499,2.244,2.2427,2.2401,2.236,2.2337,2.2301,2.2286,2.2247,2.2225,2.2195,2.2156,2.2152,2.2118,2.2103,2.21,2.2101,2.2094,2.2095,2.2107,2.2082,2.2082,2.2082,2.2082,0,2.2608,2.2586,2.253,2.2512,2.2487,2.2445,2.2421,2.2392,2.2356,2.2331,2.2296,2.2274,2.2224,2.2195,2.2165,2.2135,2.2125,2.2108,2.21,2.2111,2.2113,2.2097,2.2096,2.2082,2.2082,2.2082,2.2082,0,2.2633,2.2595,2.256,2.2508,2.2494,2.2478,2.2432,2.2413,2.2382,2.2351,2.2342,2.2293,2.2258,2.2217,2.2167,2.2147,2.2119,2.2107,2.2133,2.2129,2.2128,2.2129,2.213,2.2129,2.2105,2.2105,2.2105,0,2.2637,2.262,2.2566,2.2548,2.2524,2.2494,2.2472,2.2431,2.2408,2.2361,2.2347,2.2309,2.2277,2.2221,2.2181,2.2144,2.2131,2.2134,2.2125,2.2137,2.2131,2.2133,2.2131,2.2137,2.2137,2.2138,2.2138,0,2.2649,2.2632,2.2601,2.2564,2.2538,2.2507,2.2474,2.246,2.2413,2.2389,2.2353,2.2328,2.2279,2.2242,2.2199,2.2172,2.2147,2.2141,2.2139,2.2149,2.2165,2.2157,2.214,2.2141,2.2141,2.2141,2.214,2.214,2.2664,2.2647,2.2608,2.2575,2.2546,2.2516,2.2496,2.2464,2.2433,2.2391,2.2368,2.2333,2.2292,2.2233,2.2207,2.2178,2.2169,2.2165,2.2164,2.2164,2.2167,2.2171,2.217,2.217,2.217,2.217,2.217,0,2.2674,2.2647,2.2618,2.2574,2.2548,2.2528,2.2491,2.2471,2.244,2.2405,2.2374,2.2334,2.2298,2.2256,2.2217,2.2202,2.219,2.2193,2.2194,2.2188,2.2177,2.2183,2.2204,2.2204,2.2204,2.2204,2.2204,2.2204,2.2677,2.2648,2.2626,2.2583,2.2555,2.2521,2.2502,2.2474,2.2446,2.2403,2.2373,2.2347,2.2309,2.2267,2.2234,2.2222,2.2209,2.2217,2.2202,2.2192,2.2189,2.2186,2.2192,2.2214,2.2214,2.2215,2.2215,2.2215]}]]